Total_Precipitation_Accumulation
0.09 0.17 0.20 0.22 0.21 0.19 0.14 0.12 0.18 0.27 0.42 0.57 0.69 0.92 0.78 0.75 0.81 0.88 0.75 0.67 0.56 0.61 0.71 0.79 0.83 0.82 0.87 0.96 1.03 1.17 1.18 1.15 1.21 1.29 1.31 1.36 1.38 1.40 1.42 1.47 1.50 1.66 1.68 1.77
0.11 0.14 0.14 0.16 0.18 0.16 0.12 0.10 0.10 0.21 0.42 0.62 0.72 0.79 0.76 0.62 0.63 0.83 0.75 0.67 0.66 0.72 0.83 0.78 0.74 0.74 0.76 0.78 0.88 1.06 1.17 1.26 1.34 1.34 1.27 1.34 1.39 1.39 1.38 1.48 1.57 1.66 1.71 1.83
0.21 0.17 0.19 0.26 0.21 0.18 0.15 0.13 0.14 0.26 0.42 0.59 0.73 0.68 0.73 0.66 0.59 0.60 0.60 0.58 0.66 0.74 0.78 0.77 0.74 0.70 0.70 0.70 0.82 1.09 1.19 1.22 1.40 1.50 1.42 1.50 1.55 1.54 1.50 1.52 1.65 1.73 1.86 1.91
0.28 0.31 0.38 0.30 0.25 0.23 0.26 0.27 0.25 0.28 0.41 0.62 0.82 0.75 0.70 0.70 0.68 0.62 0.50 0.55 0.64 0.67 0.68 0.70 0.72 0.72 0.71 0.74 0.80 1.04 1.22 1.32 1.58 1.74 1.65 1.66 1.67 1.70 1.73 1.78 1.81 1.92 1.95 1.85
0.43 0.44 0.47 0.40 0.37 0.38 0.47 0.57 0.48 0.49 0.63 0.69 0.68 0.70 0.77 0.72 0.66 0.60 0.58 0.63 0.65 0.69 0.72 0.79 0.86 0.88 0.88 0.97 1.07 1.22 1.36 1.50 1.74 1.97 2.11 2.06 1.92 1.99 2.06 2.04 2.03 2.09 2.11 2.05
0.58 0.64 0.74 0.69 0.55 0.50 0.65 1.04 0.84 0.69 0.71 0.73 0.73 0.93 0.95 0.69 0.60 0.58 0.60 0.68 0.80 0.91 0.92 0.96 1.03 1.02 1.05 1.17 1.37 1.51 1.55 1.59 1.74 1.97 2.09 2.05 2.03 2.20 2.32 2.27 2.21 2.23 2.12 1.99
0.65 0.76 0.77 0.69 0.60 0.64 1.15 1.53 1.08 0.93 0.94 0.98 0.98 0.94 0.82 0.74 0.76 0.68 0.64 0.72 0.79 0.82 0.95 1.07 1.17 1.23 1.33 1.38 1.46 1.52 1.56 1.60 1.74 1.98 2.25 2.20 2.21 2.29 2.38 2.38 2.38 2.39 2.29 2.18
0.78 1.02 1.15 0.75 0.66 1.03 1.40 1.27 1.31 1.28 1.25 1.19 1.05 0.88 0.76 0.75 0.80 0.73 0.69 0.77 0.78 0.77 0.89 1.06 1.26 1.45 1.51 1.48 1.52 1.62 1.63 1.63 1.72 1.98 2.09 2.14 2.28 2.33 2.43 2.52 2.49 2.44 2.43 2.28
1.05 1.27 1.16 0.92 1.00 1.06 1.14 1.24 1.30 1.23 1.23 1.20 1.15 1.03 0.92 0.88 0.84 0.81 0.87 0.86 0.87 0.89 0.96 1.08 1.25 1.46 1.62 1.64 1.63 1.60 1.56 1.53 1.62 1.78 1.88 2.03 2.12 2.07 2.12 2.25 2.24 2.26 2.27 2.21
1.46 1.46 1.28 1.11 1.01 1.03 1.01 1.06 1.06 1.02 0.98 0.97 0.96 0.94 0.92 0.93 0.96 0.99 1.04 1.02 1.01 1.06 1.09 1.15 1.23 1.40 1.56 1.57 1.58 1.57 1.50 1.45 1.55 1.76 1.88 1.95 2.02 2.00 2.05 2.10 2.16 2.23 2.25 2.18
1.83 1.81 1.61 1.47 1.26 1.21 1.07 1.05 1.05 0.98 0.95 0.90 0.82 0.81 0.82 0.80 0.83 0.90 1.00 1.03 1.03 1.07 1.12 1.13 1.18 1.39 1.52 1.54 1.60 1.65 1.60 1.55 1.63 1.74 1.83 1.98 2.04 2.07 2.07 2.07 2.05 2.05 2.04 1.98
1.98 1.80 1.67 1.66 1.34 1.29 1.33 1.22 1.10 1.08 1.04 0.95 0.83 0.78 0.79 0.77 0.79 0.83 0.93 1.06 1.08 1.14 1.15 1.13 1.17 1.31 1.43 1.60 1.75 1.79 1.72 1.68 1.64 1.61 1.69 1.76 1.81 1.77 1.72 1.67 1.65 1.58 1.56 1.47
1.36 1.43 1.50 1.62 1.46 1.29 1.27 1.21 1.13 1.12 1.08 0.98 0.89 0.83 0.73 0.69 0.75 0.82 0.92 1.03 1.13 1.24 1.20 1.16 1.22 1.31 1.39 1.52 1.71 1.81 1.74 1.62 1.53 1.47 1.47 1.49 1.58 1.66 1.71 1.61 1.51 1.38 1.30 1.20
1.37 1.46 1.55 1.51 1.54 1.49 1.30 1.21 1.12 1.08 1.04 0.95 0.90 0.85 0.79 0.77 0.76 0.86 1.00 1.08 1.09 1.16 1.18 1.15 1.16 1.24 1.33 1.48 1.67 1.74 1.69 1.58 1.42 1.34 1.35 1.35 1.44 1.53 1.58 1.59 1.54 1.34 1.18 1.09
1.56 1.48 1.46 1.41 1.40 1.48 1.44 1.39 1.27 1.16 1.05 1.01 0.96 0.95 0.89 0.84 0.82 0.88 0.97 1.14 1.25 1.27 1.19 1.18 1.20 1.22 1.27 1.41 1.54 1.64 1.65 1.54 1.42 1.38 1.38 1.30 1.23 1.26 1.31 1.36 1.43 1.38 1.20 1.12
1.45 1.36 1.36 1.41 1.44 1.39 1.33 1.37 1.34 1.21 1.00 0.95 0.98 0.96 0.90 0.87 0.90 0.95 1.03 1.17 1.44 1.60 1.48 1.32 1.24 1.21 1.24 1.37 1.45 1.42 1.40 1.36 1.32 1.32 1.32 1.26 1.21 1.23 1.29 1.36 1.42 1.39 1.26 1.16
1.27 1.20 1.20 1.26 1.32 1.37 1.34 1.25 1.20 1.12 1.01 0.96 0.94 0.92 0.90 0.92 1.02 1.17 1.25 1.31 1.37 1.38 1.39 1.40 1.32 1.24 1.29 1.38 1.45 1.36 1.22 1.16 1.11 1.10 1.12 1.12 1.12 1.20 1.33 1.40 1.43 1.33 1.15 1.01
0.97 0.98 1.05 1.08 1.12 1.25 1.27 1.14 1.04 1.00 0.99 1.00 0.96 0.95 0.97 1.02 1.22 1.45 1.48 1.42 1.39 1.27 1.18 1.22 1.24 1.25 1.34 1.41 1.48 1.46 1.29 1.13 1.00 0.96 1.00 1.03 1.10 1.21 1.28 1.27 1.20 1.14 1.04 0.96
0.76 0.81 0.86 0.90 0.94 1.00 1.05 1.05 1.07 1.01 0.95 0.97 1.01 1.04 1.09 1.13 1.30 1.54 1.60 1.62 1.60 1.43 1.17 1.06 1.11 1.14 1.23 1.31 1.39 1.35 1.13 0.94 0.78 0.74 0.78 0.89 1.04 1.21 1.25 1.17 1.06 1.01 1.00 0.96
0.72 0.70 0.71 0.74 0.77 0.82 0.89 0.91 0.91 0.96 0.94 0.96 1.01 1.06 1.16 1.23 1.39 1.58 1.68 1.72 1.62 1.42 1.21 1.03 0.95 0.94 0.99 1.14 1.24 1.20 1.05 0.87 0.72 0.67 0.70 0.81 0.98 1.17 1.18 1.07 1.02 1.04 1.03 1.03
0.71 0.69 0.68 0.70 0.76 0.75 0.78 0.82 0.84 0.91 0.97 0.96 1.05 1.18 1.25 1.25 1.36 1.60 1.82 1.83 1.54 1.24 1.07 1.03 0.90 0.82 0.86 1.04 1.08 0.99 0.93 0.85 0.74 0.72 0.77 0.91 1.09 1.18 1.11 1.02 0.98 0.97 0.97 1.04
0.79 0.76 0.71 0.71 0.79 0.79 0.78 0.83 0.88 0.93 1.00 0.96 1.02 1.16 1.24 1.35 1.35 1.36 1.45 1.63 1.49 1.26 0.99 0.85 0.81 0.84 0.91 1.00 0.97 0.90 0.87 0.84 0.79 0.78 0.86 1.01 1.10 1.10 0.99 0.94 0.99 0.96 0.94 0.98
0.83 0.80 0.76 0.72 0.77 0.82 0.79 0.83 0.89 0.99 1.09 1.05 1.03 1.08 1.22 1.35 1.35 1.41 1.35 1.24 1.22 1.18 0.97 0.82 0.78 0.83 0.89 0.91 0.91 0.87 0.88 0.84 0.79 0.79 0.84 0.94 1.00 1.01 1.00 0.99 1.02 1.00 0.99 0.98
0.81 0.79 0.78 0.76 0.76 0.86 0.91 0.88 0.89 0.96 1.03 0.96 0.91 0.90 1.06 1.21 1.17 1.11 1.18 1.23 1.17 1.13 0.98 0.91 0.84 0.79 0.81 0.79 0.82 0.87 0.91 0.85 0.78 0.74 0.76 0.82 0.89 0.97 1.07 1.11 1.09 1.04 0.99 0.96
0.82 0.81 0.78 0.82 0.90 1.00 0.99 0.96 1.00 1.02 1.04 0.98 0.88 0.82 0.89 1.08 1.16 1.04 1.03 1.07 1.07 1.03 0.94 0.91 0.88 0.91 0.89 0.88 0.86 0.86 0.82 0.73 0.68 0.67 0.71 0.83 0.88 0.94 1.00 1.01 0.95 0.95 0.95 0.96
0.94 0.90 0.87 0.90 0.93 0.97 1.00 1.11 1.22 1.21 1.24 1.19 1.00 0.83 0.83 0.92 0.96 0.99 1.03 1.02 1.02 1.04 0.91 0.84 0.82 0.87 0.91 0.98 0.94 0.83 0.73 0.68 0.69 0.70 0.75 0.83 0.87 0.92 0.96 0.97 0.92 0.94 0.95 0.95
0.94 0.91 0.90 0.92 0.93 0.91 0.92 1.02 1.14 1.25 1.38 1.38 1.15 0.87 0.82 0.87 0.94 1.00 1.04 1.08 1.12 1.10 1.02 0.89 0.82 0.83 0.88 0.91 0.91 0.85 0.77 0.71 0.71 0.73 0.75 0.75 0.79 0.89 0.97 1.01 0.95 0.95 0.97 0.95